Flag for U.S.A. Weather past 2 weeks in Livonia, Michigan, U.S.A.

Now
79 °F

Broken clouds.


Feels Like: 80 °F
Forecast: 65 / 79 °F
Wind: 8 mph from Northwest

Location: Detroit Metropolitan Wayne County Airport

Current Time: Aug 27, 2014 at 3:46:31 PM

Latest Report: Aug 27, 2014 at 2:53 PM


Visibility: 10 mi

Pressure: 30.09 "Hg

Humidity: 56%

Dew point: 62 °F

Location of LivoniaLocation

Historic Weather in Livonia — Graph

°F

Livonia temperature yesterday

Maximum temperature yesterday: 89 °F (at 2:53 PM)
Minimum temperature yesterday: 70 °F (at 11:53 PM)
Average temperature yesterday: 76 °F

Past Weeks' High & Low Weather Summary

 TemperatureHumidityPressure
High89 °F (Aug 26, 2:53 PM)100% (Aug 20, 1:58 AM)30.13 "Hg (Aug 20, 1:58 AM)
Low50 °F (Aug 15, 4:53 AM)39% (Aug 14, 3:53 PM)29.67 "Hg (Aug 12, 1:53 PM)
Average71 °F74%29.97 "Hg
* Reported Aug 12 1:53 PM — Aug 27 1:53 PM, Livonia, Weather by CustomWeather, © 2014

Note: Actual official high and low records may vary slightly from our data, if they occured in-between our weather recording intervals... More about our weather records

Advertising

Livonia weather history for previous 24 hours

 ConditionsComfort  
Time TempWeatherWind HumidityBarometerVisibility
1:53 PM
Aug 27
74 °FBroken clouds.6 mph64%30.10 "Hg10 mi
12:53 PM75 °FPartly sunny.5 mph64%30.11 "Hg10 mi
11:53 AM73 °FBroken clouds.5 mph69%30.13 "Hg10 mi
10:53 AM70 °FMostly cloudy.8 mph73%30.12 "Hg10 mi
9:53 AM70 °FOvercast.7 mph76%30.12 "Hg10 mi
8:53 AM69 °FOvercast.6 mph81%30.12 "Hg10 mi
7:53 AM67 °FOvercast.5 mph85%30.11 "Hg10 mi
6:53 AM66 °FOvercast.12 mph90%30.10 "Hg10 mi
5:53 AM68 °FMostly cloudy.7 mph87%30.08 "Hg10 mi
4:53 AM69 °FFog.6 mph93%30.07 "Hg6 mi
3:53 AM68 °FOvercast.6 mph93%30.06 "Hg8 mi
2:53 AM69 °FOvercast.6 mph93%30.07 "Hg10 mi
1:53 AM70 °FPassing clouds.8 mph93%30.06 "Hg10 mi
12:53 AM70 °FPassing clouds.9 mph93%30.06 "Hg10 mi
11:53 PM
Aug 26
70 °FPartly cloudy.7 mph93%30.06 "Hg10 mi
11:04 PM72 °FPartly cloudy.6 mph94%30.07 "Hg10 mi
10:53 PM71 °FPassing clouds.6 mph93%30.06 "Hg10 mi
9:53 PM71 °FPartly cloudy.5 mph93%30.05 "Hg10 mi
8:53 PM72 °FBroken clouds.7 mph91%30.05 "Hg10 mi
7:53 PM72 °FBroken clouds.No wind91%30.03 "Hg10 mi
6:53 PM73 °FPartly sunny.3 mph88%30.04 "Hg10 mi
5:53 PM73 °FLight rain. Mostly cloudy.3 mph84%30.02 "Hg10 mi
4:58 PM73 °FStrong thunderstorms. Cloudy.35 mph78%30.09 "Hg1 mi
3:53 PM89 °FMostly cloudy.13 mph55%30.03 "Hg10 mi
Weather by CustomWeather, © 2014

See weather overviewHow to use our weather pages